{"data":{"norad_id":58097,"epoch":"2026-05-24T18:59:56.848416Z","epoch_age_seconds":88999,"freshness":"FRESH","line1":"1 58097U 23161A   26144.79163019 -.00001223  00000+0 -29170-4 0  9997","line2":"2 58097  53.1592 172.0126 0001335  71.6680 288.4466 15.30196830146077","mean_motion":15.3019683,"eccentricity":0.0001335,"inclination_deg":53.1592,"raan_deg":172.0126,"arg_perigee_deg":71.668,"mean_anomaly_deg":288.4466,"bstar":-2.917e-5,"rev_number":14607,"period_min":94.105540657799,"perigee_km":474.30961071942,"apogee_km":476.13945824912,"semimajor_km":6853.3615344843,"source":"CELESTRAK","updated_at":"2026-05-25T13:38:18.525796Z"}}